Location: Newark
(37.8333°N, 119.5000°W)
Time: 10:21:11
(UTC+00:00)

Tiros 1 despin weight - Pass Details

Date: 24 August 2019
Orbit: 594 x 642 km, 48.2° (Epoch: 19 September)

Event Time Altitude Azimuth Distance (km) Brightness Sun altitude
Rises 07:12:55 0° 252° (WSW) 2,824 - -39.7°
Reaches altitude 10° 07:15:15 10° 258° (WSW) 1,929 - -39.9°
Maximum altitude 07:19:32 49° 333° (NNW) 783 - -40.1°
Drops below altitude 10° 07:23:53 10° 49° (NE) 1,957 - -40.3°
Sets 07:26:17 0° 55° (NE) 2,871 - -40.4°
